{"data":{"norad_id":62302,"epoch":"2026-09-21T12:21:55.318176Z","epoch_age_seconds":89870,"freshness":"FRESH","line1":"1 62302U 24239B   26264.51522359  .00017440  00000+0  52601-3 0  9997","line2":"2 62302  53.1618 358.6484 0001141 111.4210 248.6914 15.34404514 99445","mean_motion":15.34404514,"eccentricity":0.0001141,"inclination_deg":53.1618,"raan_deg":358.6484,"arg_perigee_deg":111.421,"mean_anomaly_deg":248.6914,"bstar":0.00052601,"rev_number":9944,"period_min":93.847481994569,"perigee_km":461.90928534013,"apogee_km":463.4703620213,"semimajor_km":6840.8268236807,"source":"CELESTRAK","updated_at":"2026-09-22T09:00:49.570820Z"}}